Temperature
29 30 30 30 30 31 31 31 29 28 27 26 26 27 26 25 24 23 23 22 21 21 20 19 19 18 18 18 17 17 17 17 16 16 16 16 16 16 16 16 16 16 16 16
28 29 30 29 30 30 31 31 30 28 26 26 26 26 25 25 24 23 22 22 21 20 19 19 18 18 18 17 17 17 17 16 16 16 16 16 16 16 16 16 16 16 16 16
27 28 28 28 29 30 30 31 30 28 26 25 25 25 24 24 23 22 22 21 20 20 19 18 18 18 17 17 17 17 16 16 16 16 16 16 15 15 15 15 15 15 15 15
27 27 26 28 31 31 30 30 30 28 26 25 24 23 23 23 22 22 21 20 19 19 18 18 18 17 17 17 17 16 16 16 16 16 15 15 15 15 15 15 15 15 15 14
27 26 27 28 29 30 29 28 29 27 26 25 24 23 22 21 21 20 20 19 19 18 18 17 17 17 16 16 16 16 16 15 15 15 15 15 15 14 14 14 14 14 14 14
26 25 25 25 27 29 29 27 28 26 25 25 24 23 21 20 19 19 18 18 18 17 17 16 16 16 16 16 15 15 15 15 15 15 15 14 14 14 14 14 14 13 13 13
25 25 25 25 25 27 26 25 26 25 24 24 23 22 20 19 18 17 17 17 17 17 16 16 16 16 15 15 15 15 15 15 15 14 14 14 14 14 14 13 13 13 13 13
25 24 23 24 24 24 23 24 24 23 23 22 20 19 18 17 17 17 16 16 16 16 16 15 15 15 15 14 14 14 14 14 14 14 14 14 14 13 13 13 13 13 12 12
25 24 22 23 22 22 22 22 22 22 21 20 19 18 17 17 16 16 16 15 15 15 15 15 15 15 14 14 14 14 14 13 13 13 13 13 13 13 13 13 12 12 12 12
23 22 22 22 21 22 21 21 21 20 20 19 18 17 17 16 15 15 15 15 15 14 14 14 14 14 14 14 13 13 13 13 13 13 12 13 12 12 12 12 12 12 11 11
21 21 21 21 21 20 20 20 20 19 19 18 17 16 15 15 14 14 14 14 14 14 14 13 13 13 13 13 13 13 12 12 12 12 12 12 12 12 12 12 12 11 11 11
21 21 21 19 19 19 19 19 18 18 17 17 16 15 14 14 13 13 13 13 13 13 13 13 12 12 12 12 12 12 12 12 11 11 11 11 11 11 10 10 10 10 10 10
20 20 19 18 18 18 18 18 17 16 16 15 14 14 13 13 12 12 12 12 12 12 12 12 12 11 11 11 11 12 11 11 11 11 11 10 10 10 10 9 9 9 9 9
18 18 18 18 17 17 17 16 16 15 14 14 13 13 12 12 12 11 11 11 11 11 11 11 11 11 11 11 11 11 11 11 11 10 10 10 10 9 9 9 8 8 8 8
18 17 17 16 16 16 15 15 14 14 13 13 12 12 12 11 11 11 11 11 11 11 11 11 10 10 10 10 10 10 10 10 10 10 10 10 9 9 9 8 8 8 7 7
17 16 16 15 15 15 14 14 13 13 12 12 12 11 11 11 11 10 10 10 10 10 10 10 10 10 10 10 10 10 10 10 10 10 10 9 9 9 9 8 8 7 7 7
16 16 15 15 14 14 13 13 13 12 12 11 11 11 11 10 10 10 10 10 10 9 9 9 9 9 9 9 10 9 9 9 9 9 9 9 9 8 8 8 7 7 7 7
15 15 15 14 14 13 13 12 12 11 11 11 10 10 10 10 10 9 9 9 9 9 9 9 9 9 9 9 9 9 9 9 9 9 9 8 8 8 8 7 7 7 7 7
15 14 14 13 13 12 12 11 11 11 10 10 10 10 10 9 9 9 9 9 9 8 8 8 9 9 9 9 9 9 9 9 9 8 8 8 8 8 8 7 7 7 7 6
14 13 13 12 12 11 11 11 10 10 10 10 10 9 9 9 9 9 9 8 8 8 8 8 8 8 9 9 9 9 9 9 9 8 8 8 8 8 7 7 7 7 6 6
12 12 12 11 11 11 10 10 10 10 10 10 9 9 9 9 9 8 8 8 8 8 8 8 8 8 9 9 9 9 9 9 9 8 8 8 8 8 7 7 7 7 6 6
12 11 11 11 10 10 10 10 10 10 9 9 9 9 9 8 8 8 8 8 8 8 8 8 8 9 9 9 9 9 9 9 9 8 8 8 8 7 7 7 7 6 6 6
11 11 10 10 10 10 10 10 10 9 9 9 9 9 9 9 9 8 8 8 8 8 8 8 8 9 9 9 9 9 9 9 9 8 8 8 7 7 7 7 6 6 6 6
10 10 10 10 10 10 9 9 9 9 9 9 9 9 9 9 9 9 8 8 8 8 8 8 8 8 8 9 9 9 9 9 8 8 8 7 7 7 6 6 6 6 6 6
10 10 10 10 9 9 9 9 9 9 9 9 9 9 9 9 9 8 8 8 8 8 8 8 8 8 8 8 8 8 8 8 8 8 8 7 7 7 6 6 6 6 6 5
10 10 10 10 10 10 10 9 9 9 9 9 9 9 9 8 8 8 8 8 8 7 7 8 8 8 8 8 8 8 8 8 8 8 7 7 7 6 6 6 6 6 5 5
10 10 10 10 10 10 10 10 10 10 9 9 9 9 9 8 8 8 8 7 7 7 7 7 7 8 8 8 8 7 7 7 7 7 7 7 6 6 6 6 5 5 5 5
Wind_Speed
16 13 11 14 16 17 17 14 11 6 6 8 8 10 12 12 12 11 10 10 10 9 8 7 7 6 6 5 6 6 5 4 3 3 3 3 3 3 3 3 3 3 3 3
16 15 13 13 15 15 16 13 10 7 5 6 8 9 10 11 12 11 9 10 9 9 8 8 6 5 6 5 6 6 5 4 3 4 4 4 4 4 4 5 5 5 4 5
14 13 13 15 16 15 13 12 9 7 8 9 9 9 10 10 11 11 9 9 9 8 8 7 6 5 5 5 6 5 4 4 4 4 5 5 5 6 6 6 6 7 6 6
12 12 14 11 11 11 11 7 6 10 14 12 12 11 10 9 10 10 10 9 8 7 7 7 7 6 6 6 6 5 4 4 4 5 5 5 6 6 6 6 6 6 6 6
12 13 12 8 7 8 8 6 8 13 15 15 16 13 10 9 10 9 9 8 8 7 8 7 6 7 6 6 6 6 5 5 5 4 5 6 6 6 6 6 6 6 6 6
11 11 10 6 5 4 5 7 9 14 13 14 13 8 8 9 10 10 9 8 8 8 8 7 6 6 7 7 6 6 5 5 5 5 5 6 6 6 6 6 6 7 7 7
13 11 6 3 4 4 4 5 9 12 12 11 7 9 12 12 11 10 9 9 9 9 8 7 7 7 8 8 7 6 6 6 6 6 6 6 5 5 5 6 7 7 9 9
14 12 4 2 3 2 4 7 9 11 12 13 15 16 14 13 11 10 9 9 8 8 8 7 7 8 9 8 6 7 7 8 7 6 6 6 6 5 5 6 6 7 8 9
4 4 9 9 9 9 8 8 10 12 13 14 15 15 14 12 10 9 9 8 7 8 9 8 7 8 8 7 6 7 8 9 8 8 7 6 6 5 4 4 5 6 6 7
8 11 12 12 12 11 10 7 11 13 13 14 14 14 13 11 10 9 8 8 7 8 9 8 8 8 8 7 7 9 9 8 8 9 9 9 8 7 6 5 5 6 6 7
9 12 12 10 11 12 10 10 12 13 13 14 14 14 13 11 9 8 8 7 8 9 9 9 9 9 8 7 8 9 9 9 9 9 10 12 13 12 11 9 7 6 6 6
5 8 9 11 10 11 11 11 13 13 14 14 14 14 13 11 9 9 9 8 9 10 10 10 10 9 8 7 7 8 8 7 8 8 9 10 11 13 19 16 19 18 15 12
9 12 15 13 12 12 12 12 13 14 14 13 13 14 13 12 10 10 9 9 10 11 11 11 11 10 8 8 8 8 8 8 8 8 8 9 9 9 10 12 17 18 16 15
14 14 13 12 12 12 13 14 15 15 14 14 13 13 13 13 12 11 10 10 10 12 12 12 12 10 8 8 9 9 9 10 8 8 8 8 8 8 8 9 9 9 9 11
9 11 13 13 13 12 13 14 15 14 14 13 13 13 13 13 13 12 11 11 11 12 12 12 11 9 7 9 10 9 9 7 7 8 7 8 7 8 8 9 9 8 7 6
11 13 13 13 13 12 12 14 14 14 13 13 13 13 13 13 13 12 11 11 11 11 11 11 11 9 9 10 10 9 8 10 8 7 8 8 7 8 8 8 8 7 7 5
11 11 12 13 13 12 12 13 13 13 13 14 14 14 14 13 13 12 11 11 11 11 11 11 10 9 9 8 8 7 7 8 7 7 7 7 7 8 8 8 8 7 7 5
9 10 10 12 13 13 13 13 13 14 13 14 14 14 14 13 13 12 11 12 12 12 11 10 9 8 8 7 6 6 6 6 7 8 8 8 8 8 8 7 8 8 6 5
10 11 13 13 13 13 13 13 13 14 14 13 14 14 13 13 12 11 11 12 12 11 9 9 8 8 8 6 5 4 7 8 8 8 7 7 7 7 7 7 6 6 6 6
12 13 14 15 15 14 14 14 15 14 13 13 14 14 13 13 12 11 11 10 8 8 8 7 7 7 6 5 2 5 7 8 8 7 7 7 7 6 6 6 6 6 6 5
14 14 15 15 14 14 14 14 14 14 13 13 14 13 13 12 11 10 10 10 8 7 7 7 5 4 4 3 1 5 7 7 7 7 6 6 6 5 5 5 5 5 5 5
14 14 15 15 15 14 13 13 13 14 13 13 13 13 13 11 11 10 9 7 7 6 5 5 6 6 5 2 4 6 6 6 6 6 6 6 5 5 5 5 5 5 5 5
14 15 15 14 14 14 14 13 13 13 13 13 13 12 11 9 8 9 8 7 7 6 5 6 7 7 6 2 4 6 6 6 6 6 6 6 6 5 5 5 4 4 4 4
14 15 14 14 14 14 13 13 12 11 12 12 11 10 10 9 8 9 9 9 9 9 7 7 7 6 3 2 4 5 5 5 5 5 6 6 5 5 4 4 3 3 3 3
14 15 15 15 13 12 13 13 12 11 11 10 11 10 8 8 9 9 10 10 10 9 8 6 3 2 1 3 4 5 5 5 5 4 5 5 4 4 4 3 3 3 3 3
13 12 11 11 10 10 11 10 10 9 9 9 9 8 9 9 10 9 8 10 10 7 7 5 4 2 3 4 4 5 5 4 4 4 4 3 4 4 4 3 3 3 2 3
13 11 10 10 9 9 9 9 9 9 9 9 9 9 9 9 9 9 9 8 8 6 5 5 4 3 4 4 4 4 3 3 3 3 3 3 3 3 3 3 2 2 2 2
Wind_Direction
252 257 233 223 226 225 227 233 235 213 170 177 174 149 139 135 133 131 130 120 115 113 109 105 101 100 98 95 90 90 94 92 99 111 115 114 107 102 101 117 133 131 136 139
242 251 247 234 230 229 228 231 227 179 169 158 144 132 134 138 138 133 132 125 120 113 110 105 101 99 98 97 95 97 97 93 92 104 106 103 100 101 98 99 102 105 104 105
239 235 239 239 229 222 227 227 218 187 156 143 132 134 132 134 132 133 130 120 116 113 108 103 99 95 96 92 94 94 97 97 95 105 104 99 103 102 99 96 96 97 98 97
240 237 235 240 236 222 216 212 170 135 135 134 128 118 110 112 117 117 114 113 113 115 114 112 104 95 90 91 95 94 89 86 86 96 104 107 104 101 97 94 93 94 95 94
233 233 232 225 228 219 191 179 149 139 133 131 130 118 99 97 103 103 104 105 108 109 104 98 96 95 91 86 85 83 82 82 83 86 93 98 100 100 98 97 93 90 89 86
234 235 233 230 268 293 175 169 134 132 136 141 144 143 123 110 105 99 93 92 98 100 96 91 87 92 96 92 86 82 79 78 79 79 88 95 98 102 104 105 105 100 88 81
231 240 232 242 266 276 205 151 120 128 136 140 131 111 120 116 105 99 95 92 91 91 88 83 85 91 89 84 78 74 77 78 78 79 84 90 94 101 105 105 103 100 94 83
226 234 216 161 175 153 101 87 102 112 114 110 108 112 116 116 113 107 102 100 98 96 89 81 82 91 89 83 79 77 78 78 75 75 84 91 92 95 104 110 109 106 99 90
215 157 99 96 103 101 98 97 106 109 114 119 121 122 120 116 113 108 102 100 100 102 95 85 84 90 95 91 88 86 82 79 76 71 71 71 81 88 98 111 111 108 103 96
113 111 103 98 99 95 95 99 110 115 122 124 124 123 120 116 112 106 103 103 103 102 96 87 86 90 92 94 92 89 85 82 78 76 69 59 56 55 59 62 85 95 96 96
122 126 115 104 100 98 98 103 104 109 113 117 118 116 113 108 104 102 100 97 98 99 96 93 89 88 91 96 98 96 92 90 86 81 79 71 64 52 58 52 57 80 86 88
139 141 129 120 112 109 108 107 108 108 108 109 112 114 111 105 99 97 97 96 95 97 96 94 91 88 85 91 101 103 101 96 96 95 93 93 90 76 59 63 61 64 72 83
113 109 109 111 108 106 107 106 106 106 108 109 109 111 110 107 102 100 97 99 100 102 100 97 90 83 81 85 91 93 96 97 97 97 97 99 102 101 94 73 64 62 65 73
99 105 110 111 108 104 107 107 106 104 105 106 109 110 111 108 103 99 96 100 104 102 100 97 93 87 84 90 91 91 93 91 95 98 102 103 104 105 103 103 97 82 66 65
102 109 115 114 112 109 112 114 113 110 109 108 110 111 111 110 106 102 100 101 100 99 99 98 95 92 91 91 87 85 87 89 90 95 97 99 102 103 102 100 100 103 100 78
111 113 119 121 119 121 123 122 119 117 116 114 112 110 109 107 106 103 100 100 101 98 97 96 94 94 93 94 89 85 87 89 92 99 99 98 96 97 99 99 98 96 94 90
130 130 131 129 128 127 124 121 120 119 117 115 114 112 109 106 103 100 98 96 95 96 98 98 97 98 97 97 100 102 103 105 105 97 95 95 95 94 95 99 99 95 89 76
130 131 132 135 132 127 121 119 119 120 118 118 116 114 113 111 108 107 106 104 99 96 95 100 101 101 98 96 94 107 112 108 99 95 95 93 95 96 99 102 105 106 108 99
130 129 129 129 126 124 123 122 121 118 118 119 118 115 114 112 112 112 110 106 104 101 97 99 104 109 108 105 102 115 111 105 100 98 101 107 106 105 105 104 102 102 100 93
120 121 123 124 124 125 124 122 121 119 120 120 118 117 116 116 116 114 109 102 98 104 110 107 108 104 107 99 87 113 110 112 112 112 112 110 104 102 101 103 103 98 95 94
128 128 127 126 124 123 125 126 125 124 122 121 119 119 118 118 118 117 114 105 100 105 111 110 105 103 96 79 109 108 109 112 113 112 110 106 105 103 100 96 95 96 97 96
131 131 130 129 126 125 125 125 125 125 124 124 124 124 123 123 119 111 103 108 116 110 117 113 100 77 45 12 115 107 108 110 110 110 106 104 102 98 96 95 94 92 91 89
129 130 130 129 129 128 126 127 127 127 127 128 129 130 128 127 129 126 119 115 118 108 100 93 79 57 20 61 97 104 105 107 108 109 109 106 102 100 97 93 90 91 92 93
131 131 131 130 130 129 129 128 125 125 127 127 129 132 132 128 120 112 110 105 97 103 98 88 69 42 8 97 94 99 102 104 107 112 112 109 106 103 99 96 96 96 96 96
132 132 132 133 133 132 130 129 129 131 131 132 135 136 130 119 118 116 116 116 120 118 117 108 75 8 39 101 92 91 86 81 81 91 101 107 115 115 111 107 103 98 96 93
132 134 134 135 132 134 137 138 138 138 135 131 128 123 117 114 117 122 126 130 127 127 127 133 143 166 123 104 96 94 94 102 98 95 93 106 108 105 101 98 99 96 93 88
131 130 130 131 133 138 140 140 137 136 134 131 128 127 126 126 127 129 131 134 139 140 137 140 141 134 123 116 108 105 106 104 99 97 102 101 103 108 115 117 108 104 100 99
Height
1432 1428 1428 1433 1434 1433 1437 1439 1449 1452 1456 1459 1455 1459 1465 1469 1474 1479 1483 1486 1490 1493 1495 1497 1499 1500 1501 1501 1501 1502 1502 1502 1502 1503 1504 1505 1505 1506 1507 1508 1510 1512 1515 1517
1436 1429 1429 1433 1431 1431 1432 1434 1439 1447 1457 1453 1457 1462 1466 1470 1474 1478 1483 1487 1491 1494 1496 1498 1499 1501 1501 1502 1502 1502 1503 1503 1503 1503 1504 1505 1505 1506 1507 1508 1510 1512 1514 1516
1441 1432 1434 1442 1431 1430 1430 1428 1435 1447 1453 1456 1460 1464 1468 1472 1475 1480 1484 1488 1491 1494 1496 1498 1499 1501 1501 1502 1503 1503 1504 1504 1504 1504 1504 1505 1505 1506 1507 1509 1510 1512 1515 1517
1440 1441 1455 1435 1419 1420 1426 1428 1431 1440 1447 1454 1461 1467 1472 1475 1478 1482 1485 1489 1492 1495 1497 1499 1500 1501 1502 1503 1504 1504 1504 1505 1505 1504 1505 1505 1506 1507 1508 1510 1512 1514 1515 1517
1439 1445 1441 1430 1423 1422 1428 1435 1433 1441 1448 1455 1462 1469 1475 1478 1481 1484 1487 1490 1493 1495 1497 1499 1500 1501 1502 1503 1504 1505 1505 1505 1505 1506 1506 1507 1507 1508 1510 1511 1513 1515 1516 1518
1438 1447 1452 1439 1427 1425 1428 1441 1437 1442 1449 1454 1460 1467 1477 1481 1483 1486 1489 1491 1493 1495 1497 1499 1500 1501 1502 1503 1504 1505 1506 1506 1507 1507 1508 1508 1509 1511 1512 1513 1515 1516 1517 1519
1439 1443 1441 1434 1432 1431 1446 1449 1441 1445 1451 1455 1460 1466 1476 1481 1484 1487 1490 1492 1494 1496 1497 1499 1500 1501 1502 1503 1505 1506 1506 1507 1507 1508 1509 1510 1511 1512 1514 1515 1516 1517 1518 1520
1434 1443 1449 1435 1437 1442 1447 1444 1446 1449 1454 1459 1465 1471 1477 1481 1485 1488 1491 1493 1494 1496 1497 1499 1500 1501 1502 1503 1505 1506 1506 1507 1508 1509 1510 1511 1512 1513 1515 1516 1518 1519 1520 1521
1428 1437 1438 1438 1441 1444 1446 1448 1451 1454 1459 1464 1469 1474 1479 1483 1486 1489 1491 1493 1495 1496 1498 1499 1501 1502 1503 1504 1505 1506 1507 1507 1509 1510 1511 1512 1513 1514 1516 1518 1519 1520 1521 1522
1430 1437 1439 1442 1444 1446 1449 1451 1454 1458 1462 1466 1471 1476 1480 1484 1487 1490 1492 1494 1496 1497 1498 1500 1501 1502 1503 1505 1506 1507 1507 1508 1510 1511 1512 1513 1514 1516 1517 1518 1520 1521 1522 1523
1433 1439 1442 1446 1448 1450 1453 1455 1458 1462 1466 1470 1473 1477 1481 1484 1488 1490 1493 1495 1496 1497 1499 1500 1502 1503 1504 1506 1507 1508 1509 1510 1511 1512 1513 1514 1515 1517 1518 1519 1521 1522 1523 1524
1434 1437 1440 1448 1451 1454 1457 1459 1462 1465 1469 1473 1476 1479 1482 1486 1488 1491 1493 1495 1497 1498 1500 1501 1503 1505 1506 1507 1508 1509 1510 1512 1513 1514 1515 1516 1517 1519 1520 1521 1523 1524 1525 1526
1435 1439 1443 1449 1452 1456 1459 1462 1466 1469 1472 1476 1479 1481 1484 1487 1490 1492 1494 1496 1498 1500 1501 1503 1505 1506 1508 1509 1510 1511 1513 1514 1515 1517 1518 1519 1521 1521 1522 1524 1525 1526 1527 1528
1438 1442 1448 1452 1456 1459 1462 1466 1469 1472 1476 1478 1481 1483 1486 1489 1492 1494 1496 1498 1500 1502 1504 1505 1507 1509 1511 1512 1513 1514 1515 1517 1518 1520 1521 1522 1523 1524 1526 1526 1527 1529 1531 1532
1444 1447 1451 1455 1459 1462 1465 1468 1472 1476 1479 1481 1484 1486 1489 1492 1494 1497 1499 1501 1502 1504 1506 1508 1510 1512 1514 1515 1516 1517 1518 1520 1521 1523 1524 1525 1527 1528 1529 1530 1531 1533 1534 1536
1448 1451 1455 1458 1461 1465 1468 1472 1475 1478 1481 1483 1486 1489 1492 1495 1498 1500 1503 1505 1506 1507 1509 1511 1513 1515 1516 1518 1519 1520 1521 1523 1525 1526 1527 1529 1530 1532 1533 1534 1536 1537 1538 1539
1451 1454 1458 1461 1464 1467 1470 1474 1477 1480 1483 1486 1489 1492 1495 1498 1500 1503 1506 1508 1510 1511 1513 1515 1516 1518 1520 1521 1522 1524 1525 1527 1528 1530 1531 1532 1534 1535 1536 1538 1539 1540 1541 1543
1453 1456 1459 1462 1465 1469 1473 1476 1479 1483 1486 1489 1491 1494 1498 1501 1503 1506 1509 1511 1513 1515 1517 1519 1520 1522 1523 1525 1526 1528 1529 1531 1532 1533 1534 1536 1537 1538 1540 1541 1542 1543 1544 1545
1455 1458 1461 1465 1468 1472 1475 1479 1482 1485 1488 1491 1494 1498 1501 1504 1507 1510 1512 1514 1516 1518 1521 1522 1524 1526 1527 1528 1530 1531 1533 1534 1535 1537 1538 1539 1541 1542 1543 1545 1546 1547 1547 1548
1456 1460 1463 1467 1471 1474 1478 1481 1485 1488 1492 1495 1498 1501 1505 1508 1511 1513 1516 1518 1520 1522 1524 1526 1528 1529 1531 1532 1533 1535 1537 1538 1539 1540 1541 1543 1544 1545 1546 1547 1548 1549 1549 1550
1459 1462 1465 1469 1473 1477 1481 1484 1488 1491 1495 1499 1501 1505 1508 1511 1514 1517 1519 1521 1524 1526 1527 1529 1531 1532 1534 1535 1536 1538 1539 1540 1542 1543 1544 1545 1546 1547 1548 1549 1550 1550 1551 1551
1461 1465 1469 1472 1476 1480 1485 1488 1492 1495 1499 1502 1505 1509 1512 1515 1518 1520 1522 1524 1527 1528 1530 1532 1533 1535 1536 1537 1539 1540 1541 1542 1543 1545 1546 1547 1548 1549 1550 1550 1551 1551 1552 1552
1464 1468 1472 1476 1480 1484 1488 1492 1496 1499 1503 1506 1509 1512 1515 1518 1520 1522 1525 1527 1529 1530 1532 1533 1535 1537 1538 1539 1541 1542 1543 1544 1545 1546 1547 1548 1549 1550 1551 1551 1552 1552 1553 1553
1468 1472 1476 1480 1484 1488 1492 1496 1499 1503 1507 1510 1513 1516 1518 1520 1523 1525 1527 1529 1531 1532 1533 1535 1537 1539 1540 1542 1543 1544 1545 1546 1547 1548 1548 1549 1550 1551 1551 1552 1552 1553 1553 1553
1472 1476 1479 1484 1487 1491 1495 1499 1503 1506 1510 1513 1516 1518 1521 1523 1525 1527 1529 1530 1532 1534 1536 1537 1539 1540 1542 1543 1544 1545 1546 1547 1548 1549 1549 1550 1551 1551 1552 1552 1553 1553 1553 1553
1476 1479 1483 1487 1491 1495 1499 1502 1506 1509 1512 1515 1518 1521 1523 1525 1527 1529 1531 1533 1535 1536 1538 1539 1541 1542 1544 1545 1546 1546 1547 1548 1549 1550 1550 1551 1551 1552 1552 1552 1553 1553 1553 1553
1480 1483 1487 1491 1495 1498 1502 1505 1508 1511 1514 1517 1520 1522 1525 1527 1529 1531 1533 1535 1537 1538 1540 1541 1543 1544 1545 1546 1547 1548 1549 1549 1550 1550 1551 1551 1552 1552 1552 1552 1553 1553 1553 1553